This demonstration page uses our WeatherBlox Daily Observations layout. Learn more.

40.92945, -100.16068

Hourly Observations for July 11, 2015

Temp ( °F °C ) Dew Point ( °F °C ) Humidity (%) Winds ( mph kmh ) Pressure ( in mb ) Visibility ( mi km ) Precip ( " mm )
12:15 am 00:15 Partly Cloudy 72 22.1 61 16.3 70 70 S 9 15 29.88 1012 10 16.0934 N/A
12:35 am 00:35 Clear 70 21 60 15.8 72 72 S 9 15 29.88 1012 10 16.0934 N/A
12:55 am 00:55 Clear with Nearby Thunderstorms 69 20.3 59 15.2 73 73 SSE 10 17 29.88 1012 10 16.0934 N/A
1:15 am 01:15 Mostly Cloudy with Light Rain 67 19.3 60 15.8 80 80 S 10 17 29.91 1013 10 16.0934 N/A
1:35 am 01:35 Cloudy with Thunderstorms 65 18.5 61 16.2 87 87 SSE 12 19 29.91 1013 10 16.0934 0.01 0.254
1:55 am 01:55 Cloudy with Thunderstorms 65 18.2 62 16.7 91 91 SSW 8 13 29.91 1013 5 8.0467 0.16 4.064
2:15 am 02:15 Mostly Cloudy with Light Rain 68 19.9 61 15.9 78 78 SW 5 7 29.85 1011 10 16.0934 0.04 1.016
2:35 am 02:35 Mostly Cloudy 66 19 58 14.3 74 74 S 13 20 29.88 1012 10 16.0934 0.04 1.016
2:55 am 02:55 Partly Cloudy 67 19.5 59 14.9 75 75 S 12 19 29.85 1011 10 16.0934 0.04 1.016
3:15 am 03:15 Clear 67 19.3 59 15 76 76 SSE 13 20 29.88 1012 10 16.0934 N/A
3:35 am 03:35 Clear 68 20 58 14.6 71 71 SSE 14 22 29.83 1010 10 16.0934 N/A
3:55 am 03:55 Clear 68 20.2 58 14.7 71 71 SE 9 15 29.85 1011 10 16.0934 0 0
4:15 am 04:15 Clear 67 19.5 59 15.1 76 76 SSE 13 20 29.85 1011 10 16.0934 N/A
4:35 am 04:35 Clear 65 18.5 60 15.4 82 82 ESE 6 9 29.88 1012 10 16.0934 N/A
4:55 am 04:55 Clear 65 18.4 60 15.5 83 83 S 5 7 29.88 1012 10 16.0934 N/A
5:15 am 05:15 Clear 63 17.3 60 15.3 88 88 Calm 29.91 1013 10 16.0934 N/A
5:35 am 05:35 Clear 64 17.5 60 15.5 88 88 SSE 5 7 29.91 1013 10 16.0934 N/A
5:55 am 05:55 Clear 63 17.2 60 15.5 90 90 SSE 6 9 29.91 1013 10 16.0934 N/A
6:15 am 06:15 Clear 64 17.7 60 15.3 86 86 SE 3 6 29.91 1013 10 16.0934 N/A
6:35 am 06:35 Sunny 62 16.7 59 15.1 90 90 E 3 6 29.91 1013 10 16.0934 N/A
6:55 am 06:55 Sunny 62 16.6 60 15.4 93 93 Calm 29.91 1013 10 16.0934 0 0
7:15 am 07:15 Sunny 63 17.2 61 16.1 93 93 Calm 29.91 1013 10 16.0934 N/A
7:35 am 07:35 Sunny 64 18 62 16.5 91 91 Calm 29.91 1013 10 16.0934 N/A
7:55 am 07:55 Sunny 67 19.7 62 16.4 81 81 SE 3 6 29.88 1012 10 16.0934 N/A
8:15 am 08:15 Sunny 70 20.9 62 16.4 76 76 Calm 29.88 1012 10 16.0934 N/A
8:35 am 08:35 Sunny 72 22 63 17 73 73 S 6 9 29.88 1012 10 16.0934 N/A
8:55 am 08:55 Sunny 74 23.2 63 17.3 70 70 S 5 7 29.88 1012 10 16.0934 N/A
9:15 am 09:15 Sunny 75 24.1 64 17.9 68 68 S 5 7 29.88 1012 10 16.0934 N/A
9:35 am 09:35 Sunny 77 24.9 65 18.1 66 66 S 7 11 29.88 1012 10 16.0934 N/A
9:55 am 09:55 Sunny 78 25.5 66 18.8 67 67 SSW 8 13 29.88 1012 10 16.0934 N/A
10:15 am 10:15 Sunny 78 25.7 67 19.3 68 68 SSW 8 13 29.88 1012 10 16.0934 N/A
10:35 am 10:35 Sunny 79 26.1 67 19.7 68 68 Calm 29.88 1012 10 16.0934 N/A
10:55 am 10:55 Sunny 80 26.6 69 20.3 68 68 SW 8 13 29.85 1011 10 16.0934 N/A
11:15 am 11:15 Sunny 80 26.7 69 20.3 68 68 WSW 6 9 29.85 1011 10 16.0934 N/A
11:35 am 11:35 Sunny 81 27.4 69 20.6 66 66 Calm 29.85 1011 10 16.0934 N/A
11:55 am 11:55 Sunny 81 27.2 69 20.8 68 68 WSW 6 9 29.85 1011 10 16.0934 N/A
12:15 pm 12:15 Sunny 82 28 70 21.3 67 67 Calm 29.85 1011 10 16.0934 N/A
12:35 pm 12:35 Sunny 83 28.3 71 21.7 67 67 Calm 29.85 1011 10 16.0934 N/A
12:55 pm 12:55 Sunny 83 28.5 70 21.1 64 64 Calm 29.83 1010 10 16.0934 N/A
1:15 pm 13:15 Sunny 84 28.8 72 22 67 67 NE 3 6 29.83 1010 10 16.0934 N/A
1:35 pm 13:35 Sunny 85 29.5 72 22.3 65 65 E 8 13 29.83 1010 10 16.0934 N/A
1:55 pm 13:55 Sunny 85 29.6 71 21.9 63 63 ESE 9 15 29.83 1010 10 16.0934 N/A
2:15 pm 14:15 Sunny 86 30 72 22.4 64 64 ESE 9 15 29.83 1010 10 16.0934 N/A
2:35 pm 14:35 Sunny 86 30.2 72 22.4 63 63 ESE 9 15 29.83 1010 10 16.0934 N/A
2:55 pm 14:55 Sunny 87 30.3 72 22.1 62 62 SE 10 17 29.83 1010 10 16.0934 N/A
3:15 pm 15:15 Sunny 87 30.4 72 22 61 61 SE 8 13 29.83 1010 10 16.0934 N/A
3:35 pm 15:35 Sunny 87 30.4 72 22.4 62 62 E 7 11 29.83 1010 10 16.0934 N/A
3:55 pm 15:55 Partly Cloudy 87 30.3 72 22.4 63 63 SE 7 11 29.83 1010 10 16.0934 N/A
4:15 pm 16:15 Partly Cloudy 87 30.6 72 22.4 62 62 S 8 13 29.8 1009 10 16.0934 N/A
4:35 pm 16:35 Partly Cloudy 85 29.7 72 22.4 65 65 ESE 9 15 29.83 1010 10 16.0934 N/A
4:55 pm 16:55 Partly Cloudy 86 30 72 22 62 62 ESE 8 13 29.83 1010 10 16.0934 N/A
5:15 pm 17:15 Sunny 87 30.3 73 22.5 63 63 E 5 7 29.83 1010 10 16.0934 N/A
5:35 pm 17:35 Sunny 87 30.4 73 22.7 63 63 ESE 6 9 29.77 1008 10 16.0934 N/A
5:55 pm 17:55 Sunny 86 30 72 22.3 63 63 ESE 3 6 29.77 1008 10 16.0934 N/A
6:15 pm 18:15 Sunny 86 30 73 22.6 65 65 SSE 3 6 29.77 1008 10 16.0934 N/A
6:35 pm 18:35 Sunny 87 30.5 72 22.3 62 62 Calm 29.77 1008 10 16.0934 N/A
6:55 pm 18:55 Sunny 86 30 72 22.4 64 64 SE 6 9 29.77 1008 10 16.0934 N/A
7:15 pm 19:15 Sunny 87 30.6 73 22.7 63 63 SE 3 6 29.77 1008 10 16.0934 N/A
7:35 pm 19:35 Sunny 87 30.3 73 22.5 63 63 Calm 29.77 1008 10 16.0934 N/A
7:55 pm 19:55 Sunny 85 29.7 73 23 67 67 ENE 6 9 29.77 1008 10 16.0934 N/A
8:15 pm 20:15 Sunny 84 29 74 23.3 71 71 E 8 13 29.8 1009 10 16.0934 N/A
8:35 pm 20:35 Sunny 83 28.6 73 22.5 70 70 ESE 8 13 29.8 1009 10 16.0934 N/A
8:55 pm 20:55 Sunny 83 28.1 72 22.4 71 71 ESE 7 11 29.8 1009 10 16.0934 N/A
9:15 pm 21:15 Clear 81 27.1 72 22.3 75 75 ESE 6 9 29.8 1009 10 16.0934 N/A
9:35 pm 21:35 Clear 81 27 72 22 74 74 ESE 5 7 29.8 1009 10 16.0934 N/A
9:55 pm 21:55 Clear 78 25.8 71 21.8 79 79 E 6 9 29.83 1010 10 16.0934 N/A
10:15 pm 22:15 Clear 79 26.3 71 21.7 76 76 E 7 11 29.83 1010 10 16.0934 N/A
10:35 pm 22:35 Clear 79 26 71 21.8 78 78 E 6 9 29.85 1011 10 16.0934 N/A
10:55 pm 22:55 Clear 79 26 71 21.9 78 78 E 9 15 29.85 1011 10 16.0934 N/A
11:15 pm 23:15 Clear 78 25.7 71 21.8 79 79 E 7 11 29.85 1011 10 16.0934 N/A
11:35 pm 23:35 Clear 79 26 72 22.3 80 80 E 7 11 29.83 1010 10 16.0934 N/A
11:55 pm 23:55 Clear 78 25.3 72 22 82 82 NE 5 7 29.83 1010 10 16.0934 N/A

Powered by AerisWeather